Regional Weather Roundup
Issued by NWS

Home | Current Version | Previous Version | Text Only | Print | Product List | Glossary Off
Versions: 1 2 3 4 5 6 7 8 9 10 11 12 13 14 15 16 17 18 19 20 21 22 23 24 25 26 27 28 29 30 31 32 33 34 35 36 37 38 39 40 41 42 43 44 45 46 47 48 49 50

000
ASUS43 KLSX 201407
RWRMO

WEATHER SUMMARY FOR MISSOURI
NATIONAL WEATHER SERVICE SPRINGFIELD MO
900 AM CDT SAT SEP 20 2014

NOTE: "FAIR" INDICATES FEW OR NO CLOUDS BELOW 12,000 FEET WITH NO
       SIGNIFICANT WEATHER AND/OR OBSTRUCTIONS TO VISIBILITY.
       CURRENT SKY AND/OR WEATHER CONDITIONS ARE NOT AVAILABLE FOR
       CHILLICOTHE AND FARMINGTON.

MOZ001>031-035>038-043-044-053-054-201500-
...NORTHERN AND WESTERN MISSOURI...

CITY           SKY/WX    TMP DP  RH WIND       PRES   REMARKS
KANSAS CTY INT MOSUNNY   71  69  93 S12       29.98F FOG
KANSAS C DTWN  SUNNY     74  68  81 SW10      29.98S
LEE`S SUMMIT   SUNNY     71  68  90 SW8       30.01S FOG
ST JOSEPH      PTSUNNY   70  68  93 S7        29.97F FOG
CHILLICOTHE      N/A     70  67  90 S5        29.98F
KIRKSVILLE     CLOUDY    67  65  93 S8        29.99F FOG

$$
MOZ066>068-077>081-088>096-101>105-201500-
...SOUTHWEST MISSOURI...

CITY           SKY/WX    TMP DP  RH WIND       PRES   REMARKS
SPRINGFIELD    SUNNY     70  67  90 S10       30.07R
JOPLIN         MOSUNNY   72  69  90 S9        30.05R

$$
MOZ032>034-039>042-045>050-055>058-069>072-201500-
...CENTRAL MISSOURI...

CITY           SKY/WX    TMP DP  RH WIND       PRES   REMARKS
COLUMBIA       SUNNY     70  67  90 SW9       30.03S
JEFFERSON CITY SUNNY     70  65  84 SW7       30.03R
ROLLA          SUNNY     70  65  84 SW10      30.06R
SEDALIA        MOSUNNY   73  67  81 SW10      30.03R HAZE
WHITEMAN AFB   SUNNY     70  67  92 SW10      30.02R
OSAGE BEACH    SUNNY     70  64  83 S7        30.05S

$$
MOZ051-052-059>065-201500-
...EAST CENTRAL MISSOURI...

CITY           SKY/WX    TMP DP  RH WIND       PRES   REMARKS
ST LOUIS INTL  PTSUNNY   72  64  76 SW12G23   30.04R
SPIRIT OF STL  MOSUNNY   70  65  84 W7        30.04R
ST CHARLES     SUNNY     68  63  84 CALM      30.03R

$$
MOZ072>076-082>087-097>100-106>115-201500-
...SOUTH CENTRAL AND SOUTHEAST MISSOURI...

CITY           SKY/WX    TMP DP  RH WIND       PRES   REMARKS
CAPE GIRARDEAU SUNNY     70  65  84 CALM      30.08R
FARMINGTON     SUNNY     66  64  94 S5        30.10R
POPLAR BLUFF   SUNNY     69  63  81 CALM      30.08R
WEST PLAINS    SUNNY     71  66  84 S5        30.11R

$$


USA.gov is the U.S. government's official web portal to all federal, state and local government web resources and services.